Showing default

YOTSUBA-KULOVER, 65941

Orbit data source: Space-Track

YOTSUBA-KULOVER, 65941 is a Japanese payload satellite in LEO that was delivered to the ISS. Payload-class satellites include a variety of spacecraft equipped with specific instruments for various scientific and technological missions. These include communications satellites like Starlink; space stations such as the ISS; scientific satellites like the Hubble; Earth observation satellites from companies like Planet Labs, Umbra, and HawkEye 360; GPS; miniature CubeSats for education and research; and military/defense satellites.

Loading next visibility...
Identifier
65941, 1998-067XN
Orbit
LEO
Country
Flag of JPJP / JPN
Related business
Manufacturer
Kyutech
Mission
Operational Amateur Technology
Bus & Motor
CUBESAT 2U, Unknown motor
Mass
1.8 kg wet, 1.8 kg dry
Launch date (UTC)
1998-11-20 (27 years ago)
Launch vehicle
FALCON 9
Launch site
Tyuratam Missile And Space Complex (TTMTR)
Object type
Payload
Rocket body
Debris
Shape & HBR
Box + 1 Pan, 0.1 m
Radar Cross Section
0.028 m²

Expand to show TLE details & history
Last TLE update: 16 hours ago

TLE from 16 hours ago
0 YOTSUBA-KULOVER
1 65941U 98067XN  26039.71294740  .00117812  00000-0  91543-3 0  9994
2 65941  51.6242 206.4026 0004047 255.5086 104.5463 15.70895294 18937
Epoch: 2026-02-08T17:06Z
TLE epoch observation values (Epoch: 2026-02-08T17:06:38.655Z)
Latitude
0.00001°
Longitude
170.92337°
Altitude
357.769 km
Speed
7.695 km/s
True Right ascension
13h 45m 36s
True Declination
0° 00' 00"
Sunlit
Object was in full shadow at epoch
Visualization orbit readout
Latitude
Unknown
Longitude
Unknown
Altitude
Unknown
Speed
Unknown
Apparent Right ascension
Unknown
Apparent Declination
Unknown
Sunlit
N/A
Visualization observer readout
Local Sidereal Time
11:02:44
Azimuth
Unknown
Elevation
Unknown
Doppler factor
Unknown
Orbital elements
Apogee altitude
359.578 km
Perigee altitude
354.126 km
Semi-major axis
6,734.989 km
Eccentricity
0.0004
Inclination
51.6242°
RAAN
206.4026°
Arg. of periapsis
255.5086°
True anomaly
104.59118°
Mean anomaly
104.5463°
Eccentric anomaly
104.56874°
Mean motion
3.92679 °/min
Orbital period
91.68 mins
BSTAR
0.00091543
Loading maneuver chart data...
Computing Atmospheric mass density...

Documentation

Showing up to 5 results
|